Regional Weather Roundup
Issued by NWS

Home | Current Version | Previous Version | Graphics & Text | Print | Product List | Glossary Off
Versions: 1 2 3 4 5 6 7 8 9 10 11 12 13 14 15 16 17 18 19 20 21 22 23 24 25 26 27 28 29 30 31 32 33 34 35 36 37 38 39 40 41 42 43 44 45 46 47 48 49 50

000
ASUS43 KTOP 302208
RWRKS

WEATHER ROUNDUP FOR KANSAS
NATIONAL WEATHER SERVICE GOODLAND KS
500 PM CDT SUN AUG 30 2015

NOTE:  "FAIR" INDICATES FEW OR NO CLOUDS BELOW 12,000 FEET WITH NO
SIGNIFICANT WEATHER AND/OR OBSTRUCTIONS TO VISIBILITY.

KSZ001>006-013>018-027>032-041>047-302300-
NORTHWEST KANSAS

CITY           SKY/WX    TMP DP  RH WIND       PRES   REMARKS
GOODLAND       SUNNY     91  39  16 S20G26    29.98F HAZE
HAYS           SUNNY     90  52  27 S13       29.96S
HILL CITY      SUNNY     95  45  17 SE13G24   29.95F HAZE
RUSSELL        SUNNY     87  58  37 SE13      29.95F
$$

KSZ061>065-074>080-084>089-302300-
SOUTHWEST KANSAS

CITY           SKY/WX    TMP DP  RH WIND       PRES   REMARKS
DODGE CITY     SUNNY     89  45  21 S7        29.99F
ELKHART          N/A     89  54  30 S12         N/A
GARDEN CITY    SUNNY     90  42  18 SE14      29.99F HAZE
GREAT BEND     SUNNY     86  57  37 SE12      29.96F
LIBERAL        SUNNY     91  39  16 S7        30.00F
PRATT          SUNNY     84  54  34 E3        29.99F
$$

KSZ066>073-081>083-090>101-302300-
SOUTHEAST KANSAS

CITY           SKY/WX    TMP DP  RH WIND       PRES   REMARKS
CHANUTE        CLOUDY    83  70  64 E6        29.97F
COFFEYVILLE    MOSUNNY   84  72  67 E3        29.95F
HUTCHINSON     SUNNY     83  65  54 SE7       29.98F
MEDICINE LODGE   N/A     85  61  44 VRB5      29.95F
NEWTON         MOSUNNY   81  61  50 S7        30.01F
PARSONS        MOSUNNY   85  73  67 N3        29.97F
WICHITA INTL   MOSUNNY   81  64  56 SE8       29.97F
WICHITA JABRA  MOSUNNY   78  66  66 E3        29.98F
WICHITA MCCONL MOSUNNY   83  53  35 E7        29.97F
$$

KSZ007>012-019>026-033>040-048>060-102>105-302300-
NORTHEAST KANSAS

CITY           SKY/WX    TMP DP  RH WIND       PRES   REMARKS
CONCORDIA      SUNNY     78  66  66 SE14      29.99F
EMPORIA        SUNNY     81  66  60 E8        29.98F
LAWRENCE       MOSUNNY   84  68  58 VRB5      29.97F
MANHATTAN      PTSUNNY   80  69  69 E10       29.98F
MARYSVILLE     MOSUNNY  N/A N/A N/A SE6       30.00S
OLATHE IND     SUNNY     82  69  64 SE8       29.99F
OLATHE EXE     SUNNY     81  69  67 SE6       29.98F
SALINA         SUNNY     83  65  54 E12       29.98F
TOPEKA BILLARD SUNNY     83  69  62 SE5       29.98F
TOPEKA FORBES  MOSUNNY   82  68  62 CALM      29.98F
$$


USA.gov is the U.S. government's official web portal to all federal, state and local government web resources and services.